Starlink 31776

operational
NORAD ID: 59603 Int'l Des: 2024-080 Owner: SPXS Country: US Constellation: starlink
LEOCIRCULAR

关于 Starlink 31776

正在加载描述...

实时位置

正在加载3D地球...

即将过境

高度历史

Altitude vs Time

uPlot chart will show altitude changes over time

两行轨道根数

1 59603U 24080C 25308.63167720 .00006003 00000-0 22739-3 0 9992
2 59603 43.0018 27.8936 0001122 279.5043 80.5682 15.27595101 85369
Epoch: Nov 4, 2025 • Age: 18 hours

当前状态

高度 485.1 km
速度 7.62 km/s
星下点 -12.12°S, 32.75°E
发射日期 Apr 28, 2024
运行时间 1.5 years
类型 internet

技术详情

分类 Payload
质量 730.00 kg
干质量 700.00 kg
总质量 730.00 kg
长度 0.30 m
直径 4.10 m
跨度 29.00 m
形状 Box + pan
制造商 SPXS
平台类型 Starlink V2M
阶段状态 In Orbit
所有者/国家 SPXS/US

大型星座

Loading constellations...